UAL9 KDEN-KEWR

Flight info

Callsign UAL9
Flight time N/A
Altitude 35000
Route EMMYS8 ZIRKL LEFAM SPI WWODD RINTE KLYNE Q29 WWSHR DORET J584 SLT FQM3
Aircraft A21N/M-SDE2E3FGHIRWXY/LB1

Departure

Time N/A
Airport Denver International Airport (KDEN)

Arrival

Time 2026-05-04 02:46
Airport Newark Liberty International Airport (KEWR)
Time Latitude Longitude Altitude Speed Heading
2026-05-04 02:13 41.57140 -78.45760 34980 ft 491 kts 98°
2026-05-04 02:14 41.56065 -78.36737 34983 ft 491 kts 98°
2026-05-04 02:14 41.54998 -78.27768 34993 ft 492 kts 98°
2026-05-04 02:15 41.53927 -78.18754 34995 ft 492 kts 98°
2026-05-04 02:15 41.52836 -78.09731 34992 ft 492 kts 99°
2026-05-04 02:16 41.51732 -78.00739 34992 ft 492 kts 99°
2026-05-04 02:16 41.50593 -77.91717 34982 ft 492 kts 100°
2026-05-04 02:17 41.49328 -77.82745 34977 ft 493 kts 101°
2026-05-04 02:17 41.48010 -77.73765 34972 ft 493 kts 101°
2026-05-04 02:18 41.46706 -77.64758 34978 ft 494 kts 101°
2026-05-04 02:18 41.45427 -77.55817 34983 ft 495 kts 101°
2026-05-04 02:19 41.44139 -77.46798 34971 ft 495 kts 101°
2026-05-04 02:19 41.42832 -77.37776 34973 ft 496 kts 101°
2026-05-04 02:20 41.41506 -77.28751 34974 ft 496 kts 101°
2026-05-04 02:20 41.40178 -77.19727 34961 ft 496 kts 101°
2026-05-04 02:21 41.38847 -77.10709 34967 ft 497 kts 101°
2026-05-04 02:21 41.37503 -77.01674 34967 ft 497 kts 101°
2026-05-04 02:22 41.36146 -76.92634 34970 ft 497 kts 101°
2026-05-04 02:22 41.34796 -76.83671 34961 ft 497 kts 102°
2026-05-04 02:23 41.33143 -76.74746 34961 ft 496 kts 111°
2026-05-04 02:23 41.30827 -76.66092 34960 ft 496 kts 111°
2026-05-04 02:24 41.28517 -76.57438 34956 ft 496 kts 111°
2026-05-04 02:24 41.26195 -76.48776 34956 ft 497 kts 111°
2026-05-04 02:25 41.23865 -76.40125 34956 ft 497 kts 111°
2026-05-04 02:25 41.21540 -76.31534 34927 ft 498 kts 111°
2026-05-04 02:26 41.20363 -76.27205 34067 ft 506 kts 111°
2026-05-04 02:26 41.19144 -76.22729 32779 ft 518 kts 110°
2026-05-04 02:26 41.17923 -76.18230 31993 ft 517 kts 110°
2026-05-04 02:26 41.16700 -76.13733 31101 ft 519 kts 110°
2026-05-04 02:27 41.15469 -76.09243 30240 ft 519 kts 110°
2026-05-04 02:27 41.14222 -76.04717 29209 ft 520 kts 110°
2026-05-04 02:27 41.12986 -76.00230 28681 ft 511 kts 110°
2026-05-04 02:27 41.11775 -75.95828 28112 ft 505 kts 110°
2026-05-04 02:28 41.10573 -75.91463 27384 ft 502 kts 110°
2026-05-04 02:28 41.09395 -75.87181 26727 ft 498 kts 110°
2026-05-04 02:28 41.08210 -75.82867 26067 ft 495 kts 110°
2026-05-04 02:28 41.07037 -75.78599 25434 ft 491 kts 110°
2026-05-04 02:29 41.05868 -75.74367 24784 ft 488 kts 110°
2026-05-04 02:29 41.04699 -75.70163 24169 ft 484 kts 110°
2026-05-04 02:29 41.03537 -75.65995 23543 ft 481 kts 110°
2026-05-04 02:29 41.02377 -75.61849 22867 ft 476 kts 110°
2026-05-04 02:30 41.01623 -75.59154 22493 ft 471 kts 110°
2026-05-04 02:30 41.00487 -75.55098 21917 ft 465 kts 110°
2026-05-04 02:30 40.99371 -75.51110 21371 ft 458 kts 110°
2026-05-04 02:30 40.98272 -75.47180 20826 ft 452 kts 111°
2026-05-04 02:31 40.97183 -75.43294 20315 ft 446 kts 111°
2026-05-04 02:31 40.96112 -75.39474 19798 ft 440 kts 111°
2026-05-04 02:31 40.95055 -75.35707 19336 ft 434 kts 111°
2026-05-04 02:31 40.94026 -75.32039 18865 ft 428 kts 111°
2026-05-04 02:32 40.92657 -75.27152 18281 ft 420 kts 111°
2026-05-04 02:32 40.91985 -75.24762 17954 ft 416 kts 111°
2026-05-04 02:32 40.90982 -75.21213 17535 ft 409 kts 111°
2026-05-04 02:32 40.89990 -75.17720 17109 ft 403 kts 111°
2026-05-04 02:33 40.89009 -75.14272 16691 ft 399 kts 111°
2026-05-04 02:33 40.88036 -75.10846 16274 ft 397 kts 111°
2026-05-04 02:33 40.87075 -75.07444 15869 ft 394 kts 111°
2026-05-04 02:33 40.86121 -75.04051 15429 ft 392 kts 110°
2026-05-04 02:34 40.85174 -75.00682 15003 ft 390 kts 110°
2026-05-04 02:34 40.84231 -74.97333 14549 ft 387 kts 110°
2026-05-04 02:34 40.83294 -74.94013 14105 ft 385 kts 110°
2026-05-04 02:34 40.82591 -74.90629 13622 ft 381 kts 92°
2026-05-04 02:35 40.82695 -74.87161 13146 ft 375 kts 81°
2026-05-04 02:35 40.83115 -74.83783 12681 ft 371 kts 75°
2026-05-04 02:35 40.83694 -74.80478 12216 ft 368 kts 72°
2026-05-04 02:35 40.84318 -74.77252 11756 ft 365 kts 72°
2026-05-04 02:36 40.84942 -74.73992 11273 ft 363 kts 72°
2026-05-04 02:36 40.85521 -74.70760 10891 ft 359 kts 73°
2026-05-04 02:36 40.86048 -74.67589 10765 ft 346 kts 73°
2026-05-04 02:36 40.86532 -74.64527 10641 ft 335 kts 74°
2026-05-04 02:37 40.86987 -74.61566 10516 ft 323 kts 74°
2026-05-04 02:37 40.87426 -74.58701 10350 ft 315 kts 73°
2026-05-04 02:37 40.87859 -74.55886 10097 ft 309 kts 73°
2026-05-04 02:37 40.88286 -74.53109 9891 ft 307 kts 73°
2026-05-04 02:38 40.88712 -74.50348 9774 ft 307 kts 73°
2026-05-04 02:38 40.89137 -74.47590 9443 ft 306 kts 73°
2026-05-04 02:38 40.89562 -74.44828 9007 ft 306 kts 73°
2026-05-04 02:38 40.89989 -74.42071 8572 ft 306 kts 74°
2026-05-04 02:39 40.90414 -74.39317 8123 ft 305 kts 74°
2026-05-04 02:39 40.90837 -74.36574 7676 ft 305 kts 74°
2026-05-04 02:39 40.91256 -74.33844 7366 ft 301 kts 74°
2026-05-04 02:39 40.91676 -74.31137 6923 ft 303 kts 74°
2026-05-04 02:40 40.92095 -74.28413 6478 ft 304 kts 74°
2026-05-04 02:40 40.92512 -74.25693 6166 ft 300 kts 74°
2026-05-04 02:40 40.92923 -74.22997 5765 ft 299 kts 74°
2026-05-04 02:40 40.93329 -74.20306 5354 ft 298 kts 76°
2026-05-04 02:41 40.93351 -74.17557 4966 ft 301 kts 99°
2026-05-04 02:41 40.92605 -74.14988 4558 ft 300 kts 124°
2026-05-04 02:41 40.91216 -74.12984 4150 ft 293 kts 148°
2026-05-04 02:41 40.89479 -74.11613 3689 ft 291 kts 155°
2026-05-04 02:42 40.87726 -74.10316 3318 ft 289 kts 154°
2026-05-04 02:42 40.86010 -74.09038 3167 ft 279 kts 155°
2026-05-04 02:42 40.84271 -74.08084 3018 ft 259 kts 176°
2026-05-04 02:42 40.82556 -74.08133 2792 ft 238 kts 200°
2026-05-04 02:43 40.81129 -74.08883 2509 ft 204 kts 212°
2026-05-04 02:43 40.79957 -74.09634 2269 ft 178 kts 213°
2026-05-04 02:43 40.78901 -74.10311 2026 ft 158 kts 213°
2026-05-04 02:43 40.77961 -74.10914 1820 ft 142 kts 213°
2026-05-04 02:44 40.77109 -74.11458 1675 ft 128 kts 214°
2026-05-04 02:44 40.76342 -74.11949 1485 ft 120 kts 213°
2026-05-04 02:44 40.75598 -74.12425 1308 ft 119 kts 212°
2026-05-04 02:44 40.74847 -74.12904 1110 ft 121 kts 213°
2026-05-04 02:45 40.74067 -74.13421 973 ft 128 kts 210°
2026-05-04 02:45 40.73252 -74.13934 808 ft 130 kts 208°
2026-05-04 02:45 40.72436 -74.14450 636 ft 130 kts 207°
2026-05-04 02:45 40.71624 -74.14965 458 ft 130 kts 206°
2026-05-04 02:46 40.70810 -74.15483 278 ft 130 kts 206°
2026-05-04 02:46 40.70005 -74.15996 109 ft 128 kts 207°
2026-05-04 02:46 40.69226 -74.16502 27 ft 117 kts 202°
2026-05-04 02:46 40.68743 -74.16798 21 ft 33 kts 206°
2026-05-04 02:47 40.68586 -74.16925 22 ft 33 kts 221°
2026-05-04 02:47 40.68458 -74.17153 25 ft 29 kts 235°
2026-05-04 02:47 40.68326 -74.17285 22 ft 30 kts 207°
2026-05-04 02:47 40.68148 -74.17399 22 ft 29 kts 206°
2026-05-04 02:48 40.68013 -74.17475 21 ft 19 kts 208°
2026-05-04 02:48 40.67967 -74.17579 20 ft 14 kts 282°
2026-05-04 02:48 40.68014 -74.17714 21 ft 15 kts 294°
2026-05-04 02:48 40.68070 -74.17858 22 ft 21 kts 301°
2026-05-04 02:49 40.68174 -74.18001 22 ft 16 kts 330°
2026-05-04 02:49 40.68269 -74.18096 24 ft 19 kts 338°
2026-05-04 02:49 40.68399 -74.18089 22 ft 19 kts
2026-05-04 02:49 40.68493 -74.18204 24 ft 19 kts 289°
2026-05-04 02:50 40.68507 -74.18375 24 ft 21 kts 277°
2026-05-04 02:50 40.68517 -74.18515 22 ft 12 kts 274°
2026-05-04 02:50 40.68488 -74.18595 22 ft 7 kts 230°
2026-05-04 02:50 40.68473 -74.18615 22 ft 0 kts 226°